"2009-08-20 00:00:00",1166689,3.098,63.03,4.844,0.351,19.37,109.0998,22.58,23.62,22.89,0,111.1,13.15,23.41,25.0
"2009-08-20 00:00:30",1166690,3.542,61.58,3.539,0.484,19.45,109.1001,22.58,23.63,22.95,0,111.1,13.15,23.41,23.6
"2009-08-20 00:01:00",1166691,4.646,66.18,2.343,0.299,19.73,109.1001,22.58,23.62,22.94,0,111.1,13.15,23.41,28.2
"2009-08-20 00:01:30",1166692,5.355,71.38,3.327,0.543,19.88,109.1001,22.58,23.62,22.9,0,111.1,13.15,23.41,33.4
"2009-08-20 00:02:00",1166693,5.081,80.7,12.32,0.591,19.88,109.1001,22.58,23.62,23.03,0,111.1,13.15,23.41,42.7
"2009-08-20 00:02:30",1166694,5.015,87.7,7.726,0.387,19.67,109.1001,22.58,23.63,23.05,0,111.1,13.15,23.41,49.7
"2009-08-20 00:03:00",1166695,4.458,70.94,6.081,0.138,19.54,109.1004,22.58,23.61,22.82,0,111.1,13.15,23.41,32.9
"2009-08-20 00:03:30",1166696,4.894,68.51,2.583,0.409,19.57,109.1046,22.59,23.63,22.84,0,111.1,13.15,23.43,30.5
"2009-08-20 00:04:00",1166697,4.839,66.38,4.465,0.431,19.52,109.1088,22.61,23.64,22.83,0,111.1,13.15,23.44,28.4
"2009-08-20 00:04:30",1166698,4.29,82.7,4.285,0.253,19.5,109.1119,22.61,23.66,22.77,0,111.1,13.15,23.44,44.7
"2009-08-20 00:05:00",1166699,3.595,77.37,4.18,0.224,19.43,109.1164,22.62,23.66,22.78,0,111.1,13.15,23.46,39.4
"2009-08-20 00:05:30",1166700,3.49,65.69,3.364,0.178,19.37,109.1217,22.64,23.66,22.82,0,111.1,13.15,23.47,27.7
"2009-08-20 00:06:00",1166701,3.195,61.19,3.344,0.363,19.35,109.1301,22.66,23.68,22.85,0,111.1,13.15,23.49,23.2
"2009-08-20 00:06:30",1166702,3.922,55.45,2.013,0.126,19.36,109.1341,22.67,23.67,22.93,0,111.1,13.15,23.50,17.5
"2009-08-20 00:07:00",1166703,3.875,64.08,2.824,0.226,19.41,109.1338,22.67,23.7,22.91,0,111.1,13.15,23.50,26.1
"2009-08-20 00:07:30",1166704,3.375,69.85,2.41,0.285,19.4,109.1366,22.68,23.7,22.88,0,111.1,13.15,23.51,31.8
"2009-08-20 00:08:00",1166705,3.213,68.71,4.822,0.13,19.41,109.1459,22.7,23.72,22.88,0,111.1,13.15,23.53,30.7
"2009-08-20 00:08:30",1166706,2.856,80.4,4.807,0.405,19.42,109.1647,22.75,23.73,22.83,0,111.1,13.15,23.58,42.4
"2009-08-20 00:09:00",1166707,2.766,74.61,10.66,0.663,19.43,109.1675,22.76,23.74,22.8,0,111.1,13.15,23.59,36.6
"2009-08-20 00:09:30",1166708,1.821,95.6,10.12,0.131,19.35,109.1675,22.76,23.74,22.84,0,111.1,13.15,23.59,57.6
"2009-08-20 00:10:00",1166709,2.202,83.9,5.928,0.355,19.22,109.1675,22.76,23.76,22.81,0,111.1,13.15,23.59,45.9
"2009-08-20 00:10:30",1166710,3.155,81.2,3.601,0.189,19.24,109.1745,22.77,23.76,22.79,0,111.1,13.15,23.61,43.2
"2009-08-20 00:11:00",1166711,4.117,82.7,4.26,0.615,19.33,109.1914,22.82,23.78,22.85,0,111.1,13.15,23.65,44.7
"2009-08-20 00:11:30",1166712,4.485,70.51,6.924,0.61,19.36,109.2012,22.84,23.79,23.24,0,111.1,13.15,23.67,32.5
"2009-08-20 00:12:00",1166713,2.581,84.4,16.43,0.448,19.43,109.2012,22.84,23.8,23.21,0,111.1,13.15,23.67,46.4
"2009-08-20 00:12:30",1166714,2.616,68.6,17.47,1.396,19.46,109.199,22.84,23.8,23.14,0,111.1,13.15,23.67,30.6
"2009-08-20 00:13:00",1166715,3.925,56.53,10.73,0.573,19.48,109.1776,22.78,23.79,23.29,0,111.1,13.15,23.61,18.5
"2009-08-20 00:13:30",1166716,3.514,72.77,4.141,0.176,19.45,109.177,22.78,23.77,23.16,0,111.1,13.14,23.61,34.8
"2009-08-20 00:14:00",1166717,3.866,70.42,5.954,0.38,19.45,109.1832,22.8,23.78,23.08,0,111.1,13.15,23.63,32.4
"2009-08-20 00:14:30",1166718,4.257,67.47,4.166,0.231,19.53,109.1995,22.84,23.77,23.05,0,111.1,13.14,23.67,29.5
"2009-08-20 00:15:00",1166719,4.133,57.82,9.5,0.198,19.67,109.2012,22.84,23.8,22.96,0,111.1,13.14,23.67,19.8
"2009-08-20 00:15:30",1166720,3.534,50.66,8.53,0.264,19.63,109.2012,22.84,23.79,22.93,0,111.1,13.14,23.67,12.7
"2009-08-20 00:16:00",1166721,2.928,60.13,4.938,0.321,19.61,109.2063,22.86,23.82,23.01,0,111.1,13.15,23.69,22.1
"2009-08-20 00:16:30",1166722,2.825,58.09,4.399,0.314,19.6,109.2209,22.89,23.83,22.98,0,111.1,13.15,23.73,20.1
"2009-08-20 00:17:00",1166723,3.287,70.32,6.391,0.367,19.73,109.2304,22.92,23.85,22.96,0,111.1,13.15,23.75,32.3
"2009-08-20 00:17:30",1166724,3.756,59.39,3.96,0.359,19.61,109.2349,22.93,23.86,22.95,0,111.1,13.15,23.76,21.4
"2009-08-20 00:18:00",1166725,3.581,55.51,4.566,0.333,19.57,109.2349,22.93,23.88,22.86,0,111.1,13.15,23.76,17.5
"2009-08-20 00:18:30",1166726,3.62,49.84,6.594,0.395,19.54,109.2349,22.93,23.89,22.81,0,111.1,13.15,23.76,11.8
"2009-08-20 00:19:00",1166727,3.866,49.75,2.94,0.233,19.47,109.2349,22.93,23.88,22.76,0,111.1,13.15,23.76,11.8
"2009-08-20 00:19:30",1166728,3.645,54.87,5.944,0.316,19.47,109.2358,22.93,23.89,22.66,0,111.1,13.15,23.76,16.9
"2009-08-20 00:20:00",1166729,3.355,60.46,3.838,0.325,19.48,109.2417,22.95,23.92,22.61,0,111.1,13.15,23.78,22.5
"2009-08-20 00:20:30",1166730,3.725,65.63,3.992,0.174,19.53,109.2574,22.99,23.91,22.69,0,111.1,13.15,23.82,27.6
"2009-08-20 00:21:00",1166731,3.377,66.87,5.729,0.122,19.49,109.2681,23.01,23.95,22.66,0,111.1,13.15,23.85,28.9
"2009-08-20 00:21:30",1166732,3.404,59.46,3.264,0.116,19.44,109.2686,23.02,23.96,22.52,0,111.1,13.15,23.85,21.5
"2009-08-20 00:22:00",1166733,3.785,60.98,3.354,0.178,19.42,109.2686,23.02,23.96,22.48,0,111.1,13.15,23.85,23.0
"2009-08-20 00:22:30",1166734,3.568,51.49,6.082,0.158,19.39,109.2686,23.02,23.99,22.45,0,111.1,13.15,23.85,13.5
"2009-08-20 00:23:00",1166735,2.956,51.53,5.337,0.326,19.43,109.2686,23.02,24,22.41,0,111.1,13.15,23.85,13.5
"2009-08-20 00:23:30",1166736,2.985,63.28,8.66,0.255,19.46,109.2689,23.02,24.01,22.35,0,111.1,13.15,23.85,25.3
"2009-08-20 00:24:00",1166737,3.059,63.5,2.54,0.256,19.43,109.2723,23.03,24.02,22.34,0,111.1,13.15,23.86,25.5
"2009-08-20 00:24:30",1166738,3.276,56.74,3.63,0.188,19.51,109.2782,23.04,24.03,22.26,0,111.1,13.15,23.87,18.7
"2009-08-20 00:25:00",1166739,3.056,59.52,3.878,0.172,19.68,109.2821,23.05,24.05,22.28,0,111.1,13.15,23.88,21.5
"2009-08-20 00:25:30",1166740,2.29,49.71,5.258,0.173,19.75,109.2874,23.06,24.05,22.23,0,111.1,13.15,23.90,11.7
"2009-08-20 00:26:00",1166741,2.287,57.19,4.316,0.182,19.82,109.2961,23.09,24.05,22.17,0,111.1,13.15,23.92,19.2
"2009-08-20 00:26:30",1166742,2.331,56.53,5.808,0.227,19.79,109.2981,23.09,24.06,22.15,0,111.1,13.15,23.92,18.5
"2009-08-20 00:27:00",1166743,2.833,45.52,3.698,0.132,19.69,109.2987,23.09,24.07,22.12,0,111.1,13.15,23.93,7.5
"2009-08-20 00:27:30",1166744,3.484,52.4,2.652,0.184,19.6,109.2992,23.09,24.08,22.19,0,111.1,13.15,23.93,14.4
"2009-08-20 00:28:00",1166745,3.517,57.42,3.302,0.245,19.58,109.2922,23.08,24.07,22.24,0,111.1,13.14,23.91,19.4
"2009-08-20 00:28:30",1166746,3.595,55.4,3.128,0.172,19.56,109.2815,23.05,24.09,22.25,0,111.1,13.14,23.88,17.4
"2009-08-20 00:29:00",1166747,3.945,57.2,1.842,0.149,19.6,109.2773,23.04,24.09,22.23,0,111.1,13.14,23.87,19.2
"2009-08-20 00:29:30",1166748,4.006,59.9,1.861,0.199,19.57,109.2711,23.02,24.09,22.22,0,111.1,13.14,23.85,21.9
"2009-08-20 00:30:00",1166749,4.118,55.64,2.278,0.148,19.55,109.2686,23.02,24.08,22.2,0,111.1,13.14,23.85,17.6
"2009-08-20 00:30:30",1166750,4.497,55.55,2.577,0.394,19.58,109.2686,23.02,24.07,22.3,0,111.1,13.14,23.85,17.5
"2009-08-20 00:31:00",1166751,4.837,59.84,2.848,0.238,19.6,109.2686,23.02,24.08,22.46,0,111.1,13.14,23.85,21.8
"2009-08-20 00:31:30",1166752,4.804,57,4.279,0.185,19.63,109.2686,23.02,24.07,22.5,0,111.1,13.14,23.85,19.0
"2009-08-20 00:32:00",1166753,4.525,55.14,2.446,0.166,19.59,109.2686,23.02,24.06,22.48,0,111.1,13.14,23.85,17.1
"2009-08-20 00:32:30",1166754,4.571,64.59,2.399,0.136,19.59,109.2683,23.02,24.06,22.35,0,111.1,13.14,23.85,26.6
"2009-08-20 00:33:00",1166755,4.514,65.58,2.528,0.127,19.58,109.2638,23,24.05,22.3,0,111.1,13.15,23.84,27.6
"2009-08-20 00:33:30",1166756,4.717,65.28,2.509,0.306,19.71,109.2551,22.98,24.05,22.47,0,111.1,13.15,23.81,27.3
"2009-08-20 00:34:00",1166757,4.433,62.77,2.035,0.175,19.77,109.2481,22.96,24.03,22.51,0,111.1,13.15,23.80,24.8
"2009-08-20 00:34:30",1166758,5.28,58.31,2.674,0.494,19.88,109.2445,22.95,24.04,22.48,0,111.1,13.15,23.79,20.3
"2009-08-20 00:35:00",1166759,6.211,52.99,6.604,0.494,19.85,109.2389,22.94,24.02,22.89,0,111.1,13.15,23.77,15.0
"2009-08-20 00:35:30",1166760,8.4,67.66,7.01,0.687,19,109.2329,22.92,23.99,25.31,0,111.1,13.15,23.76,29.7
"2009-08-20 00:36:00",1166761,9.06,79.75,3.528,0.688,19.03,109.2085,22.86,23.97,25.8,0,111.1,13.15,23.69,41.8
"2009-08-20 00:36:30",1166762,10.07,80.7,2.028,0.25,19.13,109.1956,22.83,23.93,26.05,0,111.1,13.15,23.66,42.7
"2009-08-20 00:37:00",1166763,10.25,80.6,1.328,0.187,19.31,109.1689,22.76,23.89,25.91,0,111.1,13.15,23.59,42.6
"2009-08-20 00:37:30",1166764,10.67,82,1.232,0.293,19.38,109.1366,22.68,23.86,26.37,0,111.1,13.15,23.51,44.0
"2009-08-20 00:38:00",1166765,10.75,85,1.082,0.205,19.44,109.0987,22.58,23.8,25.99,0,111.1,13.15,23.41,47.0
"2009-08-20 00:38:30",1166766,10.11,86.6,1.477,0.533,19.43,109.0642,22.49,23.74,26.32,0,111.1,13.15,23.32,48.6
"2009-08-20 00:39:00",1166767,9.61,88.3,0.945,0.107,19.4,109.0298,22.4,23.66,26.29,0,111.1,13.15,23.23,50.3
"2009-08-20 00:39:30",1166768,9.32,88.1,1.148,0.267,19.41,109.0044,22.34,23.6,26.62,0,111.1,13.15,23.17,50.1
"2009-08-20 00:40:00",1166769,9.26,90.6,1.318,0.29,19.43,108.9754,22.26,23.53,27.15,0,111.1,13.15,23.09,52.6
"2009-08-20 00:40:30",1166770,8.45,91.4,2.333,0.521,19.52,108.9475,22.19,23.47,27.22,0,111.1,13.15,23.02,53.4
"2009-08-20 00:41:00",1166771,6.609,97.5,4.736,0.391,19.78,108.9191,22.12,23.38,26.43,0,111.1,13.15,22.95,59.5
"2009-08-20 00:41:30",1166772,6.815,92.3,3.093,0.446,19.78,108.8906,22.05,23.32,26.29,0,111.1,13.16,22.87,54.3
"2009-08-20 00:42:00",1166773,6.741,90.1,5.798,0.388,19.81,108.8611,21.97,23.24,26.26,0,111.1,13.16,22.80,52.1
"2009-08-20 00:42:30",1166774,7.005,89.9,3.716,0.611,19.83,108.8402,21.92,23.18,26.24,0,111.1,13.16,22.74,51.9
"2009-08-20 00:43:00",1166775,5.622,94.1,6.15,0.303,19.8,108.8258,21.88,23.11,26.34,0,111.1,13.16,22.71,56.1
"2009-08-20 00:43:30",1166776,5.019,92.5,6.243,0.29,19.8,108.8011,21.82,23.07,26.36,0,111.1,13.16,22.64,54.5
"2009-08-20 00:44:00",1166777,5.641,89.4,3.392,0.562,19.89,108.7896,21.79,23.01,26.33,0,111.1,13.16,22.61,51.4
"2009-08-20 00:44:30",1166778,7.743,89.3,1.566,0.336,19.36,108.7669,21.73,22.94,27.16,0,111.1,13.16,22.56,51.3
"2009-08-20 00:45:00",1166779,8.87,89.7,1.338,0.185,19.18,108.7517,21.69,22.91,28.98,0,111.1,13.16,22.52,51.7
"2009-08-20 00:45:30",1166780,8.7,90.9,1.393,0.314,19.27,108.73,21.63,22.86,29.17,0,111.1,13.16,22.46,52.9
"2009-08-20 00:46:00",1166781,9.71,90.2,1.36,0.394,19.27,108.7008,21.56,22.81,28.81,0,111,13.16,22.39,52.2
"2009-08-20 00:46:30",1166782,9.53,89,2.617,0.221,19.35,108.6769,21.5,22.76,29.16,0,111,13.15,22.32,51.0
"2009-08-20 00:47:00",1166783,9.23,83.2,1.495,0.317,19.38,108.6528,21.43,22.71,29.66,0,111,13.16,22.26,45.2
"2009-08-20 00:47:30",1166784,8.58,80.1,2.085,0.258,19.39,108.6309,21.38,22.64,30.51,0,111,13.16,22.21,42.1
"2009-08-20 00:48:00",1166785,8.41,80.6,1.184,0.153,19.45,108.6053,21.31,22.59,30.5,0,111,13.16,22.14,42.6
"2009-08-20 00:48:30",1166786,8.81,79.35,1.832,0.176,19.39,108.5879,21.27,22.52,30.99,0,111,13.16,22.09,41.3
"2009-08-20 00:49:00",1166787,8.5,84.6,2.206,0.443,19.48,108.5635,21.21,22.48,30.27,0,111,13.16,22.03,46.6
"2009-08-20 00:49:30",1166788,8.5,81.4,4.104,0.348,19.4,108.543,21.15,22.42,29.81,0,111,13.16,21.98,43.4
"2009-08-20 00:50:00",1166789,8.5,81.3,2.468,0.282,19.41,108.5293,21.12,22.36,30.11,0,111,13.16,21.94,43.3
"2009-08-20 00:50:30",1166790,8.34,81.2,1.61,0.292,19.34,108.5013,21.05,22.33,29.94,0,111,13.16,21.87,43.2
"2009-08-20 00:51:00",1166791,8.84,83.1,0.586,0.304,19.38,108.4978,21.04,22.26,28.59,0,111,13.17,21.86,45.1
"2009-08-20 00:51:30",1166792,9.12,79.76,1.782,0.277,19.36,108.4771,20.98,22.21,30.14,0,111,13.17,21.81,41.8
"2009-08-20 00:52:00",1166793,8.71,80.8,2.744,0.262,19.38,108.4788,20.99,22.18,29.74,0,111,13.17,21.81,42.8
"2009-08-20 00:52:30",1166794,8.73,79.11,2.242,0.211,19.38,108.4596,20.94,22.14,30.51,0,111,13.17,21.76,41.1
"2009-08-20 00:53:00",1166795,8.69,80.2,0.989,0.177,19.32,108.4547,20.93,22.09,30.17,0,111,13.18,21.75,42.2
"2009-08-20 00:53:30",1166796,8.72,84.1,3.155,0.292,19.31,108.4554,20.93,22.06,30.13,0,111,13.18,21.75,46.1
"2009-08-20 00:54:00",1166797,8.76,83.3,1.839,0.311,19.25,108.4346,20.87,22.03,29.39,0,111,13.18,21.70,45.3
"2009-08-20 00:54:30",1166798,9.48,81.6,2.277,0.291,19.15,108.4229,20.84,22,29.97,0,111,13.18,21.67,43.6
"2009-08-20 00:55:00",1166799,9.55,84.9,1.953,0.188,19.09,108.4244,20.85,21.97,30.67,0,111,13.18,21.67,46.9
"2009-08-20 00:55:30",1166800,9.61,87,1.9,0.22,19.21,108.4158,20.83,21.93,30.3,0,110.9,13.18,21.65,49.0
"2009-08-20 00:56:00",1166801,9.72,88.5,1.802,0.379,19.19,108.4,20.79,21.9,30.8,0,110.9,13.18,21.61,50.5
"2009-08-20 00:56:30",1166802,9.58,88.4,1.924,0.281,19.17,108.3977,20.78,21.88,30.95,0,110.9,13.18,21.60,50.4
"2009-08-20 00:57:00",1166803,9.59,89,0.816,0.131,19.15,108.398,20.78,21.86,30.97,0,110.9,13.18,21.61,51.0
"2009-08-20 00:57:30",1166804,9.62,91.8,1.435,0.238,19.22,108.3887,20.76,21.83,31.24,0,110.9,13.18,21.58,53.8
"2009-08-20 00:58:00",1166805,9.45,91,1.204,0.162,19.21,108.3685,20.71,21.81,31.3,0,110.9,13.18,21.53,53.0
"2009-08-20 00:58:30",1166806,9.53,92.7,1.952,0.163,19.33,108.3643,20.69,21.8,31.02,0,110.9,13.18,21.52,54.7
"2009-08-20 00:59:00",1166807,9.61,94.9,1.561,0.098,19.44,108.3643,20.69,21.77,30.14,0,110.9,13.18,21.52,56.9
"2009-08-20 00:59:30",1166808,9.05,91.7,2.968,0.369,19.17,108.3583,20.68,21.75,30.88,0,110.9,13.18,21.50,53.7
"2009-08-20 01:00:00",1166809,9,95.7,1.687,0.201,19.25,108.3395,20.63,21.74,30.51,0,110.9,13.18,21.45,57.7
"2009-08-20 01:00:30",1166810,9.22,90.4,1.266,0.19,18.88,108.3308,20.61,21.73,32.22,0,110.9,13.18,21.43,52.4
"2009-08-20 01:01:00",1166811,9.24,94.9,3.168,0.305,19.09,108.3305,20.61,21.69,31.84,0,110.9,13.18,21.43,56.9
"2009-08-20 01:01:30",1166812,9.24,93.9,1.537,0.16,18.93,108.3305,20.61,21.68,32.05,0,110.9,13.18,21.43,55.9
"2009-08-20 01:02:00",1166813,9.15,95.2,2.308,0.228,19,108.3232,20.59,21.67,32.55,0,110.9,13.18,21.41,57.2
"2009-08-20 01:02:30",1166814,8.94,92.2,2.586,0.163,18.95,108.3117,20.56,21.66,31.93,0,110.9,13.18,21.38,54.2
"2009-08-20 01:03:00",1166815,8.78,92.3,1.565,0.449,18.95,108.2988,20.53,21.65,32.65,0,110.9,13.18,21.35,54.3
"2009-08-20 01:03:30",1166816,8.58,92.3,1.306,0.227,18.91,108.2983,20.53,21.63,32.71,0,110.9,13.18,21.35,54.3
"2009-08-20 01:04:00",1166817,8.13,88.8,1.555,0.222,18.85,108.3023,20.54,21.63,33.12,0,110.9,13.18,21.36,50.8
"2009-08-20 01:04:30",1166818,8.15,92.1,1.984,0.388,18.85,108.3096,20.55,21.6,33.66,0,110.9,13.18,21.38,54.1
"2009-08-20 01:05:00",1166819,8.36,91.9,3.145,0.264,18.99,108.2992,20.53,21.59,33.84,0,110.9,13.18,21.35,53.9
"2009-08-20 01:05:30",1166820,8.59,90.8,3.571,0.422,19.17,108.2884,20.5,21.57,32.69,0,110.9,13.18,21.32,52.8
"2009-08-20 01:06:00",1166821,8.97,90.8,1.72,0.196,19.01,108.288,20.5,21.58,33.34,0,110.9,13.18,21.32,52.8
"2009-08-20 01:06:30",1166822,8.86,96.2,1.352,0.185,19.19,108.2902,20.5,21.56,33.04,0,110.9,13.18,21.33,58.2
"2009-08-20 01:07:00",1166823,8.98,95.6,3.104,0.272,19.11,108.2896,20.5,21.52,33.05,0,110.9,13.18,21.33,57.6
"2009-08-20 01:07:30",1166824,9.05,91.7,2.248,0.213,18.94,108.277,20.47,21.53,33.54,0,110.9,13.18,21.29,53.7
"2009-08-20 01:08:00",1166825,9.52,95.2,2.882,0.41,19.03,108.2612,20.43,21.5,33.5,0,110.9,13.19,21.25,57.2
"2009-08-20 01:08:30",1166826,9.17,94.7,2.709,0.455,19.08,108.2634,20.44,21.49,33.18,0,110.9,13.19,21.26,56.7
"2009-08-20 01:09:00",1166827,9.5,95.3,3,0.546,19.12,108.2647,20.44,21.48,33.28,0,110.9,13.19,21.26,57.3
"2009-08-20 01:09:30",1166828,9.81,95.1,1.2,0.409,19.21,108.2571,20.42,21.47,32.85,0,110.9,13.19,21.24,57.1
"2009-08-20 01:10:00",1166829,10.04,96,1.27,0.179,19.21,108.2386,20.37,21.43,33.03,0,110.9,13.19,21.19,58.0
"2009-08-20 01:10:30",1166830,10.01,97,1.488,0.15,19.26,108.2321,20.36,21.42,33.04,0,110.9,13.19,21.18,59.0
"2009-08-20 01:11:00",1166831,10.41,98.8,1.062,0.263,19.4,108.2321,20.36,21.4,32.5,0,110.9,13.19,21.18,60.8
"2009-08-20 01:11:30",1166832,9.92,99.4,1.913,0.216,19.41,108.2299,20.35,21.39,31.73,0,110.9,13.2,21.17,61.4
"2009-08-20 01:12:00",1166833,10.09,99.1,1.375,0.217,19.37,108.2138,20.31,21.36,31.82,0,110.9,13.2,21.13,61.1
"2009-08-20 01:12:30",1166834,9.87,98.8,1.153,0.233,19.35,108.202,20.28,21.34,32.34,0,110.9,13.2,21.10,60.8
"2009-08-20 01:13:00",1166835,9.51,100.1,0.34,0.074,19.36,108.1984,20.27,21.34,32.35,0,110.9,13.2,21.09,62.1
"2009-08-20 01:13:30",1166836,9.61,98.9,0.76,0.152,19.33,108.1984,20.27,21.32,32.57,0,110.9,13.2,21.09,60.9
"2009-08-20 01:14:00",1166837,9.58,99.7,0.707,0.283,19.29,108.1984,20.27,21.32,32.96,0,110.9,13.2,21.09,61.7
"2009-08-20 01:14:30",1166838,9.8,100.2,0.489,0.125,19.28,108.1885,20.24,21.29,32.74,0,110.9,13.2,21.07,62.2
"2009-08-20 01:15:00",1166839,9.61,99.6,0.526,0.128,19.29,108.1728,20.2,21.28,32.87,0,110.9,13.2,21.03,61.6
"2009-08-20 01:15:30",1166840,9.43,98.8,1.048,0.125,19.14,108.1652,20.18,21.27,33.25,0,110.9,13.2,21.01,60.8
"2009-08-20 01:16:00",1166841,9.45,100.4,0.797,0.102,19.12,108.1646,20.18,21.26,33.14,0,110.9,13.2,21.00,62.4
"2009-08-20 01:16:30",1166842,9.54,99.5,1.118,0.211,19.14,108.1646,20.18,21.24,32.96,0,110.9,13.2,21.00,61.5
"2009-08-20 01:17:00",1166843,9.89,100.4,1.36,0.196,19.06,108.1653,20.18,21.24,33.07,0,110.9,13.2,21.01,62.4
"2009-08-20 01:17:30",1166844,9.86,97.6,2.157,0.252,18.98,108.1484,20.14,21.22,34.19,0,110.9,13.2,20.96,59.6
"2009-08-20 01:18:00",1166845,9.45,100.7,1.73,0.158,19.14,108.1409,20.12,21.21,33.42,0,110.9,13.2,20.94,62.7
"2009-08-20 01:18:30",1166846,9.68,98.7,1.566,0.261,19.14,108.1363,20.11,21.19,33.8,0,110.9,13.2,20.93,60.7
"2009-08-20 01:19:00",1166847,9.64,98.8,1.771,0.153,19.12,108.1358,20.11,21.19,34.22,0,110.9,13.2,20.93,60.8
"2009-08-20 01:19:30",1166848,9.53,98.3,1.172,0.194,19.13,108.1376,20.11,21.17,34.64,0,110.9,13.2,20.93,60.3
"2009-08-20 01:20:00",1166849,9.56,98.9,1.601,0.141,19.18,108.1335,20.1,21.15,33.46,0,110.9,13.2,20.92,60.9
"2009-08-20 01:20:30",1166850,9.34,99,1.172,0.233,19.09,108.1153,20.06,21.14,34.07,0,110.9,13.2,20.88,61.0
"2009-08-20 01:21:00",1166851,9.52,98.9,1.707,0.321,19.17,108.1105,20.04,21.14,34.08,0,110.9,13.2,20.87,60.9
"2009-08-20 01:21:30",1166852,9.52,100,0.786,0.149,19.23,108.1145,20.05,21.12,33.05,0,110.9,13.2,20.88,62.0
"2009-08-20 01:22:00",1166853,9.46,98.4,1.407,0.211,19.19,108.1169,20.06,21.1,33.43,0,110.9,13.2,20.88,60.4
"2009-08-20 01:22:30",1166854,9.37,99.1,1.275,0.187,19.2,108.1176,20.06,21.09,33.5,0,110.9,13.2,20.88,61.1
"2009-08-20 01:23:00",1166855,9.39,98.7,1.455,0.123,19.18,108.1127,20.05,21.06,33.14,0,110.9,13.2,20.87,60.7
"2009-08-20 01:23:30",1166856,9.24,99.9,1.407,0.15,19.2,108.0974,20.01,21.05,33.05,0,110.9,13.2,20.83,61.9
"2009-08-20 01:24:00",1166857,9.27,98.7,1.828,0.177,19.18,108.0941,20,21.05,33.1,0,110.8,13.2,20.82,60.7
"2009-08-20 01:24:30",1166858,9.15,98.7,1.675,0.223,19.22,108.0975,20.01,21.03,32.79,0,110.8,13.2,20.83,60.7
"2009-08-20 01:25:00",1166859,9.08,96.8,1.808,0.162,19.1,108.0993,20.01,21.02,33.77,0,110.8,13.2,20.84,58.8
"2009-08-20 01:25:30",1166860,9.24,97.3,1.184,0.17,19.12,108.0999,20.02,21,33.79,0,110.8,13.21,20.84,59.3
"2009-08-20 01:26:00",1166861,8.98,95.5,1.486,0.211,19.11,108.0971,20.01,21.01,34.65,0,110.8,13.21,20.83,57.5
"2009-08-20 01:26:30",1166862,9.2,95.6,0.744,0.148,19.15,108.0886,19.99,20.99,33.93,0,110.8,13.21,20.81,57.6
"2009-08-20 01:27:00",1166863,9.21,96.2,1.43,0.171,19.18,108.0726,19.95,20.97,33.75,0,110.8,13.21,20.77,58.2
"2009-08-20 01:27:30",1166864,9.42,96.7,1.556,0.086,19.22,108.0661,19.93,20.97,33.54,0,110.8,13.21,20.75,58.7
"2009-08-20 01:28:00",1166865,9.34,96.1,1.145,0.104,19.17,108.0661,19.93,20.96,33.98,0,110.8,13.21,20.75,58.1
"2009-08-20 01:28:30",1166866,9.28,97.5,1.457,0.089,19.18,108.0661,19.93,20.95,33.65,0,110.8,13.21,20.75,59.5
"2009-08-20 01:29:00",1166867,9.15,97.5,2.05,0.11,19.18,108.0661,19.93,20.93,33.81,0,110.8,13.21,20.75,59.5
"2009-08-20 01:29:30",1166868,9.2,97.4,1.175,0.153,19.22,108.0656,19.93,20.93,33.56,0,110.8,13.21,20.75,59.4
"2009-08-20 01:30:00",1166869,9.13,97.9,1.08,0.105,19.19,108.0557,19.9,20.91,33.69,0,110.8,13.21,20.72,59.9
"2009-08-20 01:30:30",1166870,9.29,96.6,0.854,0.117,19.17,108.054,19.9,20.9,33.85,0,110.8,13.21,20.72,58.6
"2009-08-20 01:31:00",1166871,9.44,95.7,1.528,0.191,19.12,108.0487,19.88,20.91,34.29,0,110.8,13.21,20.71,57.7
"2009-08-20 01:31:30",1166872,9.51,95.6,0.779,0.155,19.1,108.0369,19.85,20.88,34.82,0,110.8,13.21,20.68,57.6
"2009-08-20 01:32:00",1166873,9.5,95.4,0.67,0.119,19.1,108.0324,19.84,20.89,34.97,0,110.8,13.21,20.66,57.4
"2009-08-20 01:32:30",1166874,9.52,96.2,0.811,0.121,19.13,108.0324,19.84,20.88,34.79,0,110.8,13.21,20.66,58.2
"2009-08-20 01:33:00",1166875,9.39,96.4,0.98,0.252,19.16,108.0324,19.84,20.87,34.47,0,110.8,13.21,20.66,58.4
"2009-08-20 01:33:30",1166876,9.5,96.9,0.724,0.121,19.15,108.0324,19.84,20.87,34.86,0,110.8,13.21,20.66,58.9
"2009-08-20 01:34:00",1166877,9.59,95.9,1.289,0.147,19.14,108.0293,19.83,20.85,34.87,0,110.8,13.21,20.66,57.9
"2009-08-20 01:34:30",1166878,9.58,93.3,1.668,0.234,19.01,108.0169,19.8,20.83,35.64,0,110.8,13.21,20.62,55.3
"2009-08-20 01:35:00",1166879,9.63,94.4,2.774,0.247,19.09,108.0071,19.78,20.83,35.44,0,110.8,13.21,20.60,56.4
"2009-08-20 01:35:30",1166880,9.49,94.5,1.088,0.137,19.07,107.9995,19.76,20.83,35.6,0,110.8,13.21,20.58,56.5
"2009-08-20 01:36:00",1166881,9.62,95.5,1.813,0.17,19.18,107.9999,19.76,20.81,35.1,0,110.8,13.21,20.58,57.5
"2009-08-20 01:36:30",1166882,9.41,96.1,0.963,0.148,19.14,108.0032,19.77,20.81,35.15,0,110.8,13.21,20.59,58.1
"2009-08-20 01:37:00",1166883,9.5,97.2,1.794,0.106,19.24,108.0056,19.77,20.79,34.83,0,110.8,13.21,20.60,59.2
"2009-08-20 01:37:30",1166884,9.45,94.3,1.975,0.231,19.06,108.0114,19.79,20.79,35.65,0,110.8,13.21,20.61,56.3
"2009-08-20 01:38:00",1166885,9.55,95.6,0.569,0.184,19.15,108.0143,19.8,20.78,35.71,0,110.8,13.21,20.62,57.6
"2009-08-20 01:38:30",1166886,9.34,95.2,0.834,0.102,19.13,108.0073,19.78,20.78,35.67,0,110.8,13.21,20.60,57.2
"2009-08-20 01:39:00",1166887,8.96,93.1,1.443,0.361,18.95,107.9989,19.76,20.76,36.62,0,110.8,13.21,20.58,55.1
"2009-08-20 01:39:30",1166888,9.43,94.5,0.891,0.223,19.12,107.9922,19.74,20.76,36.01,0,110.8,13.21,20.56,56.5
"2009-08-20 01:40:00",1166889,9.35,96,0.965,0.167,19.14,107.9922,19.74,20.74,36.18,0,110.8,13.21,20.56,58.0
"2009-08-20 01:40:30",1166890,9.38,95.9,1.133,0.14,19.16,107.9934,19.74,20.73,36.11,0,110.8,13.21,20.56,57.9
"2009-08-20 01:41:00",1166891,9.25,95.1,2.088,0.197,19.09,107.9938,19.74,20.74,36.51,0,110.8,13.21,20.56,57.1
"2009-08-20 01:41:30",1166892,9.04,96.2,1.498,0.241,19.12,107.9926,19.74,20.73,36.32,0,110.8,13.22,20.56,58.2
"2009-08-20 01:42:00",1166893,9.21,94.6,1.193,0.225,19.05,107.99,19.73,20.71,36.52,0,110.8,13.22,20.55,56.6
"2009-08-20 01:42:30",1166894,9.17,96,1.167,0.196,19.11,107.9755,19.7,20.71,36.71,0,110.8,13.22,20.52,58.0
"2009-08-20 01:43:00",1166895,9.32,94.6,1.264,0.211,19.08,107.9692,19.68,20.7,36.6,0,110.8,13.22,20.50,56.6
"2009-08-20 01:43:30",1166896,9.56,95.9,0.689,0.152,19.12,107.9673,19.68,20.7,36.71,0,110.8,13.22,20.50,57.9
"2009-08-20 01:44:00",1166897,9.55,96.2,0.698,0.1,19.17,107.9676,19.68,20.68,36.3,0,110.8,13.23,20.50,58.2
"2009-08-20 01:44:30",1166898,9.47,96.8,0.424,0.062,19.21,107.9676,19.68,20.68,36.04,0,110.8,13.23,20.50,58.8
"2009-08-20 01:45:00",1166899,9.46,97.7,0.739,0.076,19.25,107.9676,19.68,20.67,35.97,0,110.8,13.23,20.50,59.7
"2009-08-20 01:45:30",1166900,9.32,98.9,0.668,0.134,19.28,107.9676,19.68,20.65,35.63,0,110.8,13.23,20.50,60.9
"2009-08-20 01:46:00",1166901,9.64,97.1,0.621,0.076,19.21,107.9676,19.68,20.65,35.85,0,110.8,13.23,20.50,59.1
"2009-08-20 01:46:30",1166902,9.68,96.6,0.635,0.144,19.16,107.9676,19.68,20.65,36.18,0,110.8,13.23,20.50,58.6
"2009-08-20 01:47:00",1166903,9.62,96,0.74,0.101,19.15,107.967,19.68,20.65,36.45,0,110.8,13.23,20.50,58.0
"2009-08-20 01:47:30",1166904,9.71,95.6,0.387,0.057,19.1,107.9628,19.66,20.63,36.53,0,110.8,13.23,20.48,57.6
"2009-08-20 01:48:00",1166905,9.6,94.9,1.039,0.07,19.03,107.9575,19.65,20.62,36.84,0,110.8,13.23,20.47,56.9
"2009-08-20 01:48:30",1166906,9.75,92.9,0.724,0.094,18.95,107.9504,19.63,20.63,37.54,0,110.8,13.23,20.45,54.9
"2009-08-20 01:49:00",1166907,9.87,92,0.576,0.138,18.89,107.9468,19.62,20.63,38.01,0,110.8,13.23,20.44,54.0